Location: Neuvy Saint Sepulchre
(46.5953°N, 1.8122°E)
Time: 17:58:56
(UTC+01:00)

ISS - Pass Details

Date: 24 November 2021
Orbit: 417 x 422 km, 51.6° (Epoch: 06 December)

Event Time Altitude Azimuth Distance (km) Brightness Sun altitude
Rises 17:44:58 0° 231° (SW) 2,366 1.9 -6.0°
Reaches altitude 10° 17:47:05 10° 227° (SW) 1,504 0.5 -6.4°
Maximum altitude 17:50:24 57° 148° (SSE) 504 -3.4 -6.9°
Drops below altitude 10° 17:53:45 10° 69° (ENE) 1,512 -1.6 -7.4°
Enters shadow 17:53:47 10° 69° (ENE) 1,529 -1.6 -7.4°
